Regional Weather Roundup
Issued by NWS

Home | Current Version | Previous Version | Graphics & Text | Print | Product List | Glossary On
Versions: 1 2 3 4 5 6 7 8 9 10 11 12 13 14 15 16 17 18 19 20 21 22 23 24 25 26 27 28 29 30 31 32 33 34 35 36 37 38 39 40 41 42 43 44 45 46 47 48 49 50
000
ASUS43 KMKX 192300
RWRWI

WISCONSIN REGIONAL WEATHER ROUNDUP
NATIONAL WEATHER SERVICE MILWAUKEE/SULLIVAN WI
600 PM CDT FRI SEP 19 2014

NOTE: "FAIR" INDICATES FEW OR NO CLOUDS BELOW 12,000 FEET WITH NO
SIGNIFICANT WEATHER AND/OR OBSTRUCTIONS TO VISIBILITY.

WIZ001-002-006>008-014>016-023>028-200000-
NORTHWEST WISCONSIN

CITY           SKY/WX    TMP DP  RH WIND       PRES   REMARKS
SUPERIOR ARPT  DRIZZLE   63  61  94 SW5       29.64F
ASHLAND        CLOUDY    66  57  72 SW9       29.66F
HAYWARD        CLOUDY    66  58  75 S9        29.69F
SIREN          CLOUDY    66  60  82 S5        29.69F
RICE LAKE      CLOUDY    70  58  66 S9        29.72R
LADYSMITH      CLOUDY    68  58  69 S8        29.75F
EAU CLAIRE     CLOUDY    74  58  57 S15       29.73S
MENOMONIE      CLOUDY    74  60  59 S10       29.72F
NEW RICHMOND   CLOUDY    74  62  66 NW6       29.70R
OSCEOLA        CLOUDY    69  64  82 CALM      29.71F
$$

WIZ003>005-009-010-017-018-200000-
NORTH CENTRAL WISCONSIN

CITY           SKY/WX    TMP DP  RH WIND       PRES   REMARKS
WOODRUFF       CLOUDY    65  54  65 SW13      29.76S
RHINELANDER    CLOUDY    65  53  65 SW14G20   29.79R
EAGLE RIVER    CLOUDY    65  50  58 SW8G20    29.76R
LAND O LAKES   CLOUDY    65  51  60 SW9G22    29.76R
PHILLIPS       CLOUDY    65  55  71 S9        29.75S
TOMAHAWK       CLOUDY    65  54  65 SW3       29.79R
MEDFORD        PTSUNNY   68  55  62 S18       29.78S
MERRILL        PTSUNNY   67  54  61 SW15G25   29.78R
$$

WIZ029-030-035-036-043>047-200000-
CENTRAL WISCONSIN

CITY           SKY/WX    TMP DP  RH WIND       PRES   REMARKS
WAUSAU         PTSUNNY   69  52  54 S15G33    29.77S
MOSINEE        NOT AVBL
MARSHFIELD     SUNNY     70  55  59 S13G23    29.78R
STEVENS POINT  MOSUNNY   69  51  52 S17G29    29.81S
WAUPACA        PTCLDY    73  51  46 S14G21    29.83F
WAUTOMA        NOT AVBL
WISC RAPIDS    SUNNY     72  53  51 S21G31    29.81F
CAMP DOUGLAS   NOT AVBL
$$

WIZ011>013-019>022-031-037>040-048>050-200000-
NORTHEAST WISCONSIN

CITY           SKY/WX    TMP DP  RH WIND       PRES   REMARKS
ANTIGO         MOCLDY    65  53  65 S17       29.80R
STURGEON BAY   MOCLDY    63  52  67 S24G32    29.85F
GREEN BAY      PTCLDY    70  51  51 S17G29    29.84F
MANITOWOC      NOT AVBL
APPLETON       MOCLDY    70  48  46 S21G32    29.86F
CLINTONVILLE   PTCLDY    70  50  49 S20       29.81F
OSHKOSH        PTCLDY    70  51  51 S23G30    29.86F
$$

WIZ032>034-041-042-053>061-200000-
SOUTHWEST WISCONSIN

CITY           SKY/WX    TMP DP  RH WIND       PRES   REMARKS
LA CROSSE      SUNNY     75  57  53 S22G30    29.75S
SPARTA         SUNNY     73  52  47 S18G25    29.78F
VIROQUA        FAIR      72  54  53 S15G24    29.83F
BOSCOBEL       MOSUNNY   74  53  48 S14G25    29.86F
PRAIRIE DU CHI SUNNY     73  52  47 S8        29.86S
PLATTEVILLE    FAIR      73  53  49 S16G29    29.92F
$$

WIZ056-057-062-063-064-067-068-200000-
SOUTH CENTRAL WISCONSIN

CITY           SKY/WX    TMP DP  RH WIND       PRES   REMARKS
BARABOO/DELLS  SUNNY     72  49  44 S15G29    29.87F
LONE ROCK      NOT AVBL
WATERTOWN      PTCLDY    71  50  47 S12G23    29.93F
MADISON        PTSUNNY   73  50  44 S18G30    29.90F
MIDDLETON      FAIR      73  47  39 S17G25    29.91F
MONROE         MOSUNNY   72  52  49 S20       29.94F
JANESVILLE     CLEAR     73  46  38 S18G24    29.95F
$$

WIZ051-052-058>065-066-070>072-200000-
SOUTHEAST WISCONSIN

CITY           SKY/WX    TMP DP  RH WIND       PRES   REMARKS
MILWAUKEE      MOCLDY    68  52  56 S12       29.97S
WAUKESHA       PTCLDY    70  48  46 S7        29.97F
MILWAUKEE/TIMM CLEAR     72  46  40 S16G23    29.97S
RACINE         PTCLDY    66  52  60 S12       30.00S
BURLINGTON     PTCLDY    69  47  45 S7G18     29.97F
KENOSHA        CLEAR     70  47  43 S13       29.99S
FOND DU LAC    PTCLDY    70  48  45 S20G30    29.88F
SHEBOYGAN      PTCLDY    65  51  60 S20G29    29.92F
WEST BEND      PTCLDY    70  46  43 S14       29.94S
JUNEAU         PTCLDY    71  50  47 S20G25    29.93F
$$

LSZ147-162-200000-
LAKE SUPERIOR

STATION/POSITION TIME  TEMP    WIND        PRES    WAVE
                       AIR SEA DIR/SP/G            HT/PER
                 (UTC) (F)     (DEG/KT/KT) (MB)    (FT/S)
W MID LAKE BUOY  2150   53 47  200/  8/  8 1003.8F   2/ 5
DEVILS ISLAND    2200   62     200/ 11/ 14 1003.5F
PORT WING        2200   64     180/ 12/ 19 1003.7
SAXON HARBOR     2200   68     210/  4/  6 1005.1F
$$

LMZ867-665-643>646-200000-
LAKE MICHIGAN

STATION/POSITION TIME  TEMP    WIND        PRES    WAVE
                       AIR SEA DIR/SP/G            HT/PER
                 (UTC) (F)     (DEG/KT/KT) (MB)    (FT/S)
N MID LAKE BUOY  2050   60 58  190/ 25/ 29 1012.4F   6/ 7
NORTHPORT PIER   2221   61     160/ 13     1010.8F
KEWAUNEE LAKESHO 2200   58     180/ 19/ 22 1012.0F
SHEBOYGAN LAKESH 2200   59 56  180/ 21/ 23 1014.0F
PORT WASHINGTON  2200   63     190/ 13/ 18 1014.9
ATWATER BUOY     2200   62     160/ 19/ 25 1015.7F
MILWAUKEE LAKESH 2200   63     150/ 19/ 22   N/A
S MID LAKE BUOY  2150   65 65  160/ 14/ 16 1016.4F   3/ 5
KENOSHA   LAKESH 2200   65     180/ 15/ 19 1014.9F
$$

TC  - TEMPERATURE IN CELSIUS
VSB - VISIBILITY IN STATUTE MILES
WCI - WIND CHILL INDEX
HX  - HEAT INDEX




USA.gov is the U.S. government's official web portal to all federal, state and local government web resources and services.